Flag for Canada Weather past 2 weeks in Saanich, British Columbia, Canada

Now
45 °F

Overcast.


Feels Like: 41 °F
Forecast: 47 / 52 °F
Wind: 6 mph from Northwest

Location: Victoria Int. Airportb. C.


UV Index: 3 (Moderate)

Visibility: 30 mi


Pressure: 29.83 "Hg

Humidity: 87%

Dew point: 41 °F

Location of SaanichLocation

Historic Weather in Saanich

°F

Saanich temperature yesterday

Maximum temperature yesterday: 55 °F (at 3:00 PM)
Minimum temperature yesterday: 41 °F (at 11:00 PM)
Average temperature yesterday: 48 °F

Past Weeks' High & Low Weather Summary

 TemperatureHumidityPressure
High63 °F (Apr 11, 2:00 PM)100% (Apr 8, 5:00 AM)30.35 "Hg (Apr 8, 5:00 AM)
Low36 °F (Apr 14, 5:00 AM)27% (Apr 13, 5:00 PM)29.69 "Hg (Apr 17, 7:00 PM)
Average49 °F75%30.09 "Hg
* Reported Apr 4 4:00 AM — Apr 19 4:00 AM, Saanich, Weather by CustomWeather, © 2014

Note: Actual official high and low records may vary slightly from our data, if they occured in-between our weather recording intervals... More about our weather records

Advertising

Historic Weather Conditions — Data for Previous 24 hours

 ConditionsComfort  
Time TempWeatherWind HumidityBarometerVisibility
4:00 AM
Apr 19
45 °FOvercast.No wind87%29.84 "Hg30 mi
3:00 AM43 °FMostly cloudy.2 mph93%29.86 "Hg30 mi
2:00 AM41 °FPassing clouds.5 mph93%29.88 "Hg30 mi
1:00 AM43 °FPassing clouds.2 mph87%29.91 "Hg30 mi
12:00 AM41 °FPassing clouds.3 mph93%29.93 "Hg30 mi
11:00 PM
Apr 18
41 °FMostly cloudy.No wind87%29.95 "Hg30 mi
10:00 PM43 °FPassing clouds.3 mph87%29.98 "Hg30 mi
9:00 PM48 °FPartly sunny.5 mph71%30.00 "Hg30 mi
8:00 PM50 °FPartly sunny.6 mph67%30.01 "Hg30 mi
7:00 PM52 °FBroken clouds.12 mph58%30.03 "Hg30 mi
6:00 PM52 °FScattered clouds.14 mph62%30.04 "Hg30 mi
5:00 PM52 °FBroken clouds.10 mph72%30.05 "Hg30 mi
4:00 PM54 °FBroken clouds.8 mph58%30.06 "Hg30 mi
3:00 PM55 °FBroken clouds.7 mph59%30.08 "Hg30 mi
2:00 PM54 °FPartly sunny.7 mph54%30.09 "Hg30 mi
1:00 PM54 °FPartly sunny.8 mph58%30.09 "Hg30 mi
12:00 PM52 °FPartly sunny.6 mph58%30.09 "Hg30 mi
11:00 AM52 °FBroken clouds.2 mph54%30.08 "Hg30 mi
10:00 AM52 °FPartly sunny.6 mph58%30.07 "Hg30 mi
9:00 AM48 °FPassing clouds.9 mph62%30.05 "Hg30 mi
8:00 AM46 °FPassing clouds.12 mph66%30.03 "Hg30 mi
7:00 AM45 °FPassing clouds.9 mph71%30.01 "Hg30 mi
6:00 AM43 °FPassing clouds.10 mph71%29.99 "Hg30 mi
5:00 AM45 °FPassing clouds.13 mph66%29.96 "Hg30 mi
Weather by CustomWeather, © 2014

See weather overview